Weather in Novaya Potma

Russia / Republic of Mordovia     54°02′34″N   42°58′10″E
temp.,
°C
wind,
m/s
gust,
m/s
humid.,
%
clouds,
%
prec.,
mm/h
press.,
hPa
HPBL,
m
26 january, tue
tue2600:000s61192100 0.0 1020553
03:000sse61192100 0.2 1019549
06:00+1sse61294100 0.0 1018578
09:00+1sse71392100 0.0 1017625
12:00+1sse81592100 0.0 1017649
15:00+1sse81591100 0.0 1015614
18:00+1s71493100 0.1 1016655
21:00+1s71393100 0.1 1016628
27 january, wed
wed2700:00+1s91591100 0.0 1016683
03:00+1sse91790100 0.0 1014651
06:00+1s91794100 0.0 1013681
09:00+1s91799100 0.1 1013617
12:00+1s816100100 0.5 1014497
15:00+1s71399100 0.5 1014429
18:00+1s81596100 0.3 1014490
21:00+1s61296100 1.2 1014475
28 january, thu
thu2800:000s61295100 1.0 1015463
03:000s51094100 1.6 1014435
06:00−2sse41092100 0.1 1013368
09:00−2sse5992100 0.1 1013365
12:00−2sse5991100 0.0 1013434
15:00−2sse5892100 0.0 1012453
18:00−4sse5994100 0.0 1012391
21:00−3s5895100 0.0 1011491
29 january, fri
fri2900:00−3sse4895100 0.1 1011393
03:00−3sse3695100 0.1 1009325
06:00−4se4695100 0.1 1008283
09:00−4se4694100 0.1 1006279
12:00−3sse3593100 0.1 1005321
15:00−3sse2494100 0.1 1003286
18:00−4s2497100 0.8 1002188
21:00−3ssw3697100 1.8 1002230
30 january, sat
sat3000:00−2sw3696100 0.3 1001165
03:00−4ssw359498 0.3 100290
06:00−5s479322 0.0 1002133
09:00−3ssw599549 0.1 1002498
12:00−2ssw589498 0.1 1003538
15:00−1wsw369197 0.2 1005447
18:00−5sw239479 0.0 100621
21:00−6sse239564 0.0 100629